VOE97UJ EKCH-LFST

Flight info

Callsign VOE97UJ
Flight time 1h 23m
Altitude 34000
Route NEXEN T503 MICOS DCT HAM DCT MAWEQ DCT ONUNE DCT NVO DCT ARCKY DCT GESLO/N0441F350 N852 DIK/N0354F170 N852 GTQ
Aircraft A320/M-SDE3FGHIRWY/LB1

Departure

Time 2026-05-08 18:09
Airport Copenhagen Kastrup Airport (EKCH)

Arrival

Time 2026-05-08 19:32
Airport Strasbourg Airport (LFST)
Time Latitude Longitude Altitude Speed Heading
2026-05-08 17:48 55.62522 12.65576 24 ft 0 kts 24°
2026-05-08 17:56 55.62519 12.65574 24 ft 2 kts 23°
2026-05-08 17:56 55.62504 12.65563 24 ft 2 kts 18°
2026-05-08 17:56 55.62488 12.65555 24 ft 2 kts 10°
2026-05-08 17:57 55.62472 12.65551 25 ft 2 kts 354°
2026-05-08 17:57 55.62455 12.65558 26 ft 2 kts 322°
2026-05-08 17:57 55.62448 12.65571 24 ft 2 kts 292°
2026-05-08 17:57 55.62444 12.65595 27 ft 0 kts 270°
2026-05-08 18:01 55.62444 12.65573 19 ft 3 kts 270°
2026-05-08 18:01 55.62444 12.65558 24 ft 4 kts 270°
2026-05-08 18:01 55.62443 12.65509 24 ft 4 kts 269°
2026-05-08 18:02 55.62443 12.65467 24 ft 6 kts 268°
2026-05-08 18:02 55.62441 12.65354 24 ft 9 kts 269°
2026-05-08 18:02 55.62439 12.65248 24 ft 8 kts 264°
2026-05-08 18:02 55.62404 12.65200 24 ft 5 kts 183°
2026-05-08 18:03 55.62370 12.65202 24 ft 4 kts 179°
2026-05-08 18:03 55.62323 12.65204 24 ft 11 kts 179°
2026-05-08 18:03 55.62288 12.65178 24 ft 7 kts 232°
2026-05-08 18:03 55.62274 12.65103 24 ft 6 kts 267°
2026-05-08 18:04 55.62298 12.65021 24 ft 8 kts 303°
2026-05-08 18:04 55.62328 12.64937 24 ft 10 kts 302°
2026-05-08 18:04 55.62356 12.64831 24 ft 9 kts 264°
2026-05-08 18:04 55.62335 12.64737 25 ft 8 kts 245°
2026-05-08 18:05 55.62315 12.64659 24 ft 7 kts 246°
2026-05-08 18:05 55.62298 12.64590 23 ft 6 kts 246°
2026-05-08 18:05 55.62291 12.64563 24 ft 0 kts 245°
2026-05-08 18:05 55.62290 12.64561 24 ft 1 kts 245°
2026-05-08 18:06 55.62288 12.64552 23 ft 3 kts 245°
2026-05-08 18:06 55.62261 12.64443 22 ft 11 kts 246°
2026-05-08 18:06 55.62209 12.64355 21 ft 10 kts 201°
2026-05-08 18:06 55.62126 12.64282 23 ft 23 kts 205°
2026-05-08 18:07 55.61976 12.64156 24 ft 20 kts 205°
2026-05-08 18:07 55.61866 12.64071 24 ft 14 kts 189°
2026-05-08 18:07 55.61768 12.64079 24 ft 15 kts 176°
2026-05-08 18:07 55.61674 12.64089 26 ft 7 kts 176°
2026-05-08 18:08 55.61638 12.64081 27 ft 5 kts 200°
2026-05-08 18:08 55.61591 12.64016 26 ft 13 kts 221°
2026-05-08 18:08 55.61361 12.63662 27 ft 86 kts 221°
2026-05-08 18:08 55.60708 12.62648 28 ft 160 kts 221°
2026-05-08 18:09 55.59761 12.61183 382 ft 196 kts 219°
2026-05-08 18:09 55.58731 12.59591 1365 ft 204 kts 217°
2026-05-08 18:09 55.57596 12.57856 2093 ft 228 kts 217°
2026-05-08 18:09 55.56305 12.55979 2846 ft 252 kts 213°
2026-05-08 18:10 55.54847 12.54116 3832 ft 263 kts 212°
2026-05-08 18:10 55.53325 12.52263 5031 ft 267 kts 211°
2026-05-08 18:10 55.51775 12.50402 5885 ft 272 kts 211°
2026-05-08 18:10 55.50201 12.48513 6751 ft 276 kts 211°
2026-05-08 18:11 55.48605 12.46583 7578 ft 279 kts 212°
2026-05-08 18:11 55.47000 12.44630 8444 ft 282 kts 212°
2026-05-08 18:11 55.45383 12.42656 9318 ft 284 kts 212°
2026-05-08 18:11 55.43748 12.40660 10036 ft 288 kts 212°
2026-05-08 18:12 55.42101 12.38650 10225 ft 288 kts 213°
2026-05-08 18:12 55.40452 12.36637 10279 ft 288 kts 212°
2026-05-08 18:12 55.38810 12.34636 10283 ft 287 kts 212°
2026-05-08 18:12 55.37158 12.32628 10589 ft 290 kts 212°
2026-05-08 18:13 55.35496 12.30607 11414 ft 292 kts 213°
2026-05-08 18:13 55.33806 12.28559 12176 ft 295 kts 213°
2026-05-08 18:13 55.32105 12.26502 12928 ft 299 kts 213°
2026-05-08 18:13 55.30339 12.24372 13478 ft 318 kts 213°
2026-05-08 18:14 55.28455 12.22103 14015 ft 340 kts 214°
2026-05-08 18:14 55.26444 12.19677 14448 ft 362 kts 214°
2026-05-08 18:14 55.24306 12.17098 14810 ft 384 kts 214°
2026-05-08 18:14 55.22047 12.14371 15036 ft 405 kts 214°
2026-05-08 18:15 55.19674 12.11506 15219 ft 422 kts 215°
2026-05-08 18:15 55.17252 12.08493 15732 ft 428 kts 216°
2026-05-08 18:15 55.14848 12.05418 16340 ft 431 kts 217°
2026-05-08 18:15 55.12432 12.02286 16921 ft 433 kts 217°
2026-05-08 18:16 55.10001 11.99131 17443 ft 436 kts 217°
2026-05-08 18:16 55.07557 11.95976 17962 ft 439 kts 217°
2026-05-08 18:16 55.05081 11.92800 18405 ft 442 kts 217°
2026-05-08 18:16 55.02593 11.89632 18808 ft 444 kts 217°
2026-05-08 18:17 55.00131 11.86510 19179 ft 447 kts 217°
2026-05-08 18:17 54.97567 11.83271 19560 ft 449 kts 217°
2026-05-08 18:17 54.95051 11.80094 19908 ft 451 kts 217°
2026-05-08 18:17 54.92487 11.76863 20243 ft 453 kts 217°
2026-05-08 18:18 54.89948 11.73668 20559 ft 455 kts 217°
2026-05-08 18:18 54.87361 11.70414 20878 ft 457 kts 217°
2026-05-08 18:18 54.84796 11.67188 21179 ft 459 kts 217°
2026-05-08 18:18 54.82187 11.63915 21502 ft 461 kts 217°
2026-05-08 18:19 54.79582 11.60653 21849 ft 461 kts 217°
2026-05-08 18:19 54.76985 11.57406 22274 ft 460 kts 217°
2026-05-08 18:19 54.74388 11.54166 22816 ft 455 kts 217°
2026-05-08 18:19 54.71860 11.51019 23888 ft 441 kts 217°
2026-05-08 18:20 54.69426 11.48038 24687 ft 427 kts 214°
2026-05-08 18:20 54.66817 11.45757 25032 ft 415 kts 205°
2026-05-08 18:20 54.64153 11.43887 25202 ft 413 kts 201°
2026-05-08 18:20 54.61395 11.42318 25295 ft 414 kts 200°
2026-05-08 18:21 54.58661 11.40728 25588 ft 417 kts 206°
2026-05-08 18:21 54.56174 11.38158 25715 ft 420 kts 220°
2026-05-08 18:21 54.53889 11.34944 25835 ft 428 kts 221°
2026-05-08 18:21 54.51584 11.31668 25963 ft 435 kts 221°
2026-05-08 18:22 54.49224 11.28308 26088 ft 441 kts 221°
2026-05-08 18:22 54.46846 11.24927 26278 ft 445 kts 221°
2026-05-08 18:22 54.44450 11.21538 26632 ft 446 kts 221°
2026-05-08 18:22 54.42053 11.18162 27032 ft 445 kts 221°
2026-05-08 18:23 54.39655 11.14790 27448 ft 444 kts 221°
2026-05-08 18:23 54.37269 11.11436 27878 ft 443 kts 222°
2026-05-08 18:23 54.34892 11.08093 28305 ft 442 kts 222°
2026-05-08 18:23 54.32519 11.04771 28743 ft 440 kts 222°
2026-05-08 18:24 54.30147 11.01461 29179 ft 439 kts 222°
2026-05-08 18:24 54.27782 10.98166 29613 ft 438 kts 222°
2026-05-08 18:24 54.25422 10.94883 30037 ft 437 kts 222°
2026-05-08 18:24 54.23063 10.91608 30442 ft 436 kts 222°
2026-05-08 18:25 54.20714 10.88346 30777 ft 435 kts 222°
2026-05-08 18:25 54.18366 10.85086 31127 ft 434 kts 222°
2026-05-08 18:25 54.16025 10.81841 31459 ft 434 kts 222°
2026-05-08 18:25 54.13683 10.78601 31803 ft 433 kts 222°
2026-05-08 18:26 54.11380 10.75421 32139 ft 432 kts 221°
2026-05-08 18:26 54.09009 10.72157 32484 ft 432 kts 221°
2026-05-08 18:26 54.06671 10.68946 32825 ft 431 kts 221°
2026-05-08 18:26 54.04335 10.65741 33175 ft 430 kts 221°
2026-05-08 18:27 54.02010 10.62550 33539 ft 430 kts 221°
2026-05-08 18:27 54.00467 10.60433 33753 ft 429 kts 221°
2026-05-08 18:27 53.97360 10.56169 34158 ft 429 kts 221°
2026-05-08 18:27 53.95043 10.52991 34212 ft 428 kts 221°
2026-05-08 18:28 53.90417 10.46680 34212 ft 428 kts 221°
2026-05-08 18:28 53.85756 10.40365 34211 ft 427 kts 221°
2026-05-08 18:29 53.81115 10.34072 34206 ft 427 kts 221°
2026-05-08 18:29 53.76455 10.27769 34350 ft 432 kts 221°
2026-05-08 18:30 53.74118 10.24618 34577 ft 433 kts 221°
2026-05-08 18:30 53.71749 10.21431 34807 ft 433 kts 220°
2026-05-08 18:30 53.69386 10.18261 35043 ft 434 kts 221°
2026-05-08 18:30 53.67023 10.15091 35276 ft 434 kts 220°
2026-05-08 18:31 53.64662 10.11924 35502 ft 434 kts 220°
2026-05-08 18:31 53.62294 10.08751 35731 ft 434 kts 220°
2026-05-08 18:31 53.59926 10.05583 35942 ft 435 kts 220°
2026-05-08 18:31 53.57554 10.02416 36144 ft 435 kts 220°
2026-05-08 18:32 53.55182 9.99255 36345 ft 435 kts 220°
2026-05-08 18:32 53.52814 9.96102 36549 ft 435 kts 220°
2026-05-08 18:32 53.50435 9.92938 36744 ft 436 kts 220°
2026-05-08 18:32 53.48062 9.89786 36934 ft 436 kts 220°
2026-05-08 18:33 53.45676 9.86622 37117 ft 436 kts 220°
2026-05-08 18:33 53.43294 9.83471 37326 ft 436 kts 220°
2026-05-08 18:33 53.40908 9.80323 37495 ft 436 kts 220°
2026-05-08 18:33 53.38517 9.77172 37680 ft 437 kts 220°
2026-05-08 18:34 53.36134 9.74035 37865 ft 437 kts 220°
2026-05-08 18:34 53.33742 9.70890 38044 ft 437 kts 220°
2026-05-08 18:34 53.31350 9.67747 38171 ft 438 kts 220°
2026-05-08 18:34 53.29760 9.65661 38182 ft 439 kts 220°
2026-05-08 18:35 53.24136 9.58307 38182 ft 446 kts 220°
2026-05-08 18:35 53.19202 9.51872 38176 ft 453 kts 220°
2026-05-08 18:36 53.15013 9.46418 38176 ft 459 kts 220°
2026-05-08 18:36 53.09957 9.39859 38177 ft 461 kts 220°
2026-05-08 18:37 53.04899 9.33316 38173 ft 461 kts 220°
2026-05-08 18:37 52.99597 9.27302 38170 ft 463 kts 213°
2026-05-08 18:38 52.94037 9.21867 38173 ft 464 kts 212°
2026-05-08 18:38 52.88470 9.16480 38174 ft 464 kts 212°
2026-05-08 18:39 52.82878 9.11087 38181 ft 464 kts 212°
2026-05-08 18:39 52.77295 9.05713 38179 ft 465 kts 212°
2026-05-08 18:40 52.71705 9.00346 38183 ft 465 kts 212°
2026-05-08 18:40 52.66118 8.94986 38174 ft 464 kts 212°
2026-05-08 18:41 52.60534 8.89647 38167 ft 464 kts 212°
2026-05-08 18:41 52.54948 8.84338 38171 ft 464 kts 212°
2026-05-08 18:42 52.49368 8.79044 38163 ft 464 kts 212°
2026-05-08 18:42 52.43773 8.73754 38166 ft 464 kts 212°
2026-05-08 18:43 52.38218 8.68391 38159 ft 463 kts 216°
2026-05-08 18:43 52.32919 8.62416 38167 ft 462 kts 217°
2026-05-08 18:44 52.27676 8.56288 38168 ft 463 kts 218°
2026-05-08 18:44 52.22465 8.50236 38163 ft 463 kts 217°
2026-05-08 18:45 52.17191 8.44211 38165 ft 463 kts 217°
2026-05-08 18:45 52.11905 8.38219 38174 ft 463 kts 217°
2026-05-08 18:46 52.06622 8.32221 38144 ft 463 kts 217°
2026-05-08 18:46 52.01347 8.26239 38151 ft 462 kts 217°
2026-05-08 18:47 51.96036 8.20233 38151 ft 462 kts 217°
2026-05-08 18:47 51.90755 8.14281 38138 ft 463 kts 217°
2026-05-08 18:48 51.85497 8.08381 38141 ft 463 kts 217°
2026-05-08 18:48 51.80198 8.02455 38148 ft 463 kts 217°
2026-05-08 18:49 51.74819 7.96730 38143 ft 464 kts 213°
2026-05-08 18:49 51.69294 7.91354 38125 ft 463 kts 216°
2026-05-08 18:50 51.63983 7.85471 38137 ft 463 kts 216°
2026-05-08 18:50 51.58582 7.79782 38135 ft 464 kts 216°
2026-05-08 18:51 51.53277 7.73913 38139 ft 463 kts 217°
2026-05-08 18:51 51.47967 7.68019 38140 ft 464 kts 217°
2026-05-08 18:52 51.42620 7.62103 38140 ft 464 kts 217°
2026-05-08 18:52 51.37300 7.56236 38140 ft 464 kts 217°
2026-05-08 18:53 51.31972 7.50378 38137 ft 465 kts 217°
2026-05-08 18:53 51.26646 7.44538 38136 ft 465 kts 217°
2026-05-08 18:54 51.21296 7.38689 38129 ft 465 kts 216°
2026-05-08 18:54 51.15957 7.32880 38131 ft 465 kts 216°
2026-05-08 18:55 51.07946 7.24173 38123 ft 465 kts 216°
2026-05-08 18:56 51.02580 7.18376 38114 ft 465 kts 216°
2026-05-08 18:56 50.97232 7.12599 38114 ft 465 kts 216°
2026-05-08 18:57 50.91884 7.06829 38113 ft 465 kts 216°
2026-05-08 18:57 50.86485 7.01039 38113 ft 465 kts 216°
2026-05-08 18:58 50.81153 6.95343 38110 ft 466 kts 216°
2026-05-08 18:58 50.75789 6.89606 38113 ft 466 kts 216°
2026-05-08 18:59 50.70410 6.83878 38115 ft 466 kts 216°
2026-05-08 18:59 50.65002 6.78232 38119 ft 467 kts 214°
2026-05-08 19:00 50.60406 6.73631 38122 ft 467 kts 214°
2026-05-08 19:00 50.54035 6.67276 38106 ft 467 kts 213°
2026-05-08 19:01 50.48497 6.61944 38116 ft 467 kts 213°
2026-05-08 19:01 50.42951 6.56635 38113 ft 466 kts 213°
2026-05-08 19:02 50.37505 6.51122 38109 ft 466 kts 216°
2026-05-08 19:02 50.32098 6.45522 38107 ft 466 kts 215°
2026-05-08 19:03 50.26683 6.39950 38094 ft 460 kts 215°
2026-05-08 19:03 50.24052 6.37247 38108 ft 449 kts 215°
2026-05-08 19:03 50.21443 6.34572 38092 ft 446 kts 215°
2026-05-08 19:04 50.16364 6.29108 38094 ft 442 kts 218°
2026-05-08 19:04 50.11392 6.23474 38089 ft 442 kts 217°
2026-05-08 19:05 50.06343 6.18024 38085 ft 442 kts 217°
2026-05-08 19:05 50.01268 6.12603 38084 ft 443 kts 210°
2026-05-08 19:05 49.98415 6.10756 38081 ft 446 kts 198°
2026-05-08 19:06 49.95364 6.09887 38081 ft 449 kts 185°
2026-05-08 19:06 49.92228 6.10055 38070 ft 453 kts 173°
2026-05-08 19:06 49.89144 6.11188 37520 ft 461 kts 162°
2026-05-08 19:06 49.86127 6.12914 36709 ft 459 kts 161°
2026-05-08 19:07 49.83201 6.14736 36018 ft 451 kts 159°
2026-05-08 19:07 49.80334 6.16669 35237 ft 445 kts 158°
2026-05-08 19:07 49.77524 6.18646 34417 ft 441 kts 157°
2026-05-08 19:07 49.74746 6.20625 33476 ft 439 kts 157°
2026-05-08 19:08 49.71997 6.22566 32895 ft 427 kts 157°
2026-05-08 19:08 49.69325 6.24418 32358 ft 419 kts 158°
2026-05-08 19:08 49.66666 6.26224 31823 ft 415 kts 158°
2026-05-08 19:08 49.64035 6.27988 31289 ft 410 kts 158°
2026-05-08 19:09 49.61417 6.29718 30775 ft 409 kts 158°
2026-05-08 19:09 49.58797 6.31411 30241 ft 408 kts 159°
2026-05-08 19:09 49.56188 6.33075 29675 ft 405 kts 159°
2026-05-08 19:09 49.53593 6.34728 29167 ft 401 kts 159°
2026-05-08 19:10 49.51025 6.36371 28655 ft 397 kts 159°
2026-05-08 19:10 49.48484 6.38002 28157 ft 394 kts 159°
2026-05-08 19:10 49.45969 6.39627 27667 ft 390 kts 158°
2026-05-08 19:10 49.43501 6.41326 27181 ft 387 kts 157°
2026-05-08 19:11 49.41082 6.43082 26715 ft 384 kts 156°
2026-05-08 19:11 49.38685 6.44859 26243 ft 381 kts 156°
2026-05-08 19:11 49.36310 6.46620 25803 ft 377 kts 156°
2026-05-08 19:11 49.33944 6.48302 25349 ft 373 kts 158°
2026-05-08 19:12 49.31579 6.49904 24918 ft 370 kts 159°
2026-05-08 19:12 49.30012 6.50935 24637 ft 368 kts 159°
2026-05-08 19:12 49.27665 6.52465 24216 ft 365 kts 159°
2026-05-08 19:12 49.24586 6.54476 23645 ft 362 kts 159°
2026-05-08 19:13 49.22284 6.55990 23173 ft 359 kts 159°
2026-05-08 19:13 49.20739 6.57011 22883 ft 356 kts 159°
2026-05-08 19:13 49.17747 6.58998 22331 ft 352 kts 159°
2026-05-08 19:13 49.15507 6.60489 21914 ft 350 kts 159°
2026-05-08 19:14 49.14005 6.61488 21622 ft 348 kts 159°
2026-05-08 19:14 49.11793 6.62955 21195 ft 345 kts 159°
2026-05-08 19:14 49.09595 6.64410 20765 ft 344 kts 159°
2026-05-08 19:14 49.07408 6.65855 20326 ft 342 kts 159°
2026-05-08 19:15 49.05226 6.67293 19904 ft 341 kts 159°
2026-05-08 19:15 49.03053 6.68722 19477 ft 340 kts 159°
2026-05-08 19:15 49.00879 6.70151 19043 ft 339 kts 159°
2026-05-08 19:15 48.98715 6.71575 18614 ft 339 kts 159°
2026-05-08 19:16 48.96537 6.72952 18157 ft 339 kts 160°
2026-05-08 19:16 48.94348 6.74264 17716 ft 337 kts 161°
2026-05-08 19:16 48.92165 6.75541 17295 ft 335 kts 161°
2026-05-08 19:16 48.89994 6.76803 16875 ft 334 kts 161°
2026-05-08 19:17 48.87828 6.78064 16459 ft 333 kts 161°
2026-05-08 19:17 48.85670 6.79326 16035 ft 332 kts 161°
2026-05-08 19:17 48.83521 6.80590 15638 ft 331 kts 161°
2026-05-08 19:17 48.81377 6.81857 15228 ft 330 kts 161°
2026-05-08 19:18 48.79236 6.83120 14816 ft 330 kts 161°
2026-05-08 19:18 48.77099 6.84383 14401 ft 329 kts 161°
2026-05-08 19:18 48.74991 6.85632 13976 ft 323 kts 161°
2026-05-08 19:18 48.72910 6.86862 13552 ft 317 kts 161°
2026-05-08 19:19 48.70873 6.88066 13136 ft 311 kts 161°
2026-05-08 19:19 48.68873 6.89244 12743 ft 305 kts 161°
2026-05-08 19:19 48.66932 6.90379 12357 ft 301 kts 162°
2026-05-08 19:19 48.64959 6.91530 11952 ft 298 kts 162°
2026-05-08 19:20 48.63054 6.92644 11572 ft 296 kts 162°
2026-05-08 19:20 48.61762 6.93400 11306 ft 295 kts 162°
2026-05-08 19:20 48.59228 6.94876 10779 ft 294 kts 162°
2026-05-08 19:20 48.57315 6.95984 10385 ft 295 kts 162°
2026-05-08 19:21 48.55414 6.97085 10127 ft 290 kts 162°
2026-05-08 19:21 48.53550 6.98169 9939 ft 285 kts 162°
2026-05-08 19:21 48.51694 6.99245 9804 ft 285 kts 162°
2026-05-08 19:21 48.49839 7.00316 9576 ft 285 kts 162°
2026-05-08 19:22 48.47971 7.01393 9218 ft 284 kts 162°
2026-05-08 19:22 48.46137 7.02450 8819 ft 281 kts 162°
2026-05-08 19:22 48.44342 7.03491 8387 ft 279 kts 161°
2026-05-08 19:22 48.42543 7.04540 7964 ft 277 kts 161°
2026-05-08 19:23 48.40743 7.05587 7535 ft 277 kts 160°
2026-05-08 19:23 48.38958 7.06623 7120 ft 274 kts 161°
2026-05-08 19:23 48.37185 7.07649 6667 ft 272 kts 160°
2026-05-08 19:23 48.35512 7.08928 6373 ft 269 kts 142°
2026-05-08 19:24 48.34332 7.11129 6317 ft 275 kts 116°
2026-05-08 19:24 48.33923 7.13909 6255 ft 277 kts 91°
2026-05-08 19:24 48.33934 7.16818 6174 ft 279 kts 90°
2026-05-08 19:24 48.33958 7.19732 6108 ft 279 kts 90°
2026-05-08 19:25 48.33981 7.22638 6046 ft 278 kts 90°
2026-05-08 19:25 48.34010 7.25580 5977 ft 277 kts 88°
2026-05-08 19:25 48.34356 7.28382 5922 ft 277 kts 71°
2026-05-08 19:25 48.34776 7.29857 5881 ft 278 kts 62°
2026-05-08 19:26 48.35599 7.31653 5801 ft 273 kts 50°
2026-05-08 19:26 48.36763 7.33716 5693 ft 244 kts 50°
2026-05-08 19:26 48.37820 7.35541 5581 ft 220 kts 49°
2026-05-08 19:26 48.38808 7.37219 5387 ft 207 kts 49°
2026-05-08 19:27 48.39716 7.38758 5103 ft 191 kts 49°
2026-05-08 19:27 48.40574 7.40214 4815 ft 179 kts 49°
2026-05-08 19:27 48.41373 7.41572 4539 ft 168 kts 50°
2026-05-08 19:27 48.42141 7.42876 4279 ft 164 kts 50°
2026-05-08 19:28 48.42898 7.44166 4045 ft 168 kts 49°
2026-05-08 19:28 48.43672 7.45482 3767 ft 167 kts 50°
2026-05-08 19:28 48.44450 7.46805 3491 ft 170 kts 49°
2026-05-08 19:28 48.45226 7.48125 3257 ft 169 kts 49°
2026-05-08 19:29 48.45996 7.49436 3015 ft 164 kts 50°
2026-05-08 19:29 48.46733 7.50691 2735 ft 153 kts 50°
2026-05-08 19:29 48.47407 7.51840 2491 ft 141 kts 49°
2026-05-08 19:29 48.48046 7.52931 2275 ft 137 kts 49°
2026-05-08 19:30 48.48671 7.53999 2070 ft 134 kts 49°
2026-05-08 19:30 48.49289 7.55052 1855 ft 134 kts 49°
2026-05-08 19:30 48.49899 7.56094 1651 ft 134 kts 49°
2026-05-08 19:30 48.50522 7.57159 1440 ft 134 kts 48°
2026-05-08 19:31 48.51136 7.58212 1211 ft 133 kts 48°
2026-05-08 19:31 48.51747 7.59259 961 ft 131 kts 47°
2026-05-08 19:31 48.52357 7.60295 766 ft 133 kts 48°
2026-05-08 19:31 48.52962 7.61342 587 ft 132 kts 46°
2026-05-08 19:32 48.53546 7.62344 517 ft 116 kts 47°
2026-05-08 19:32 48.53970 7.63060 511 ft 65 kts 49°
2026-05-08 19:32 48.54156 7.63380 512 ft 15 kts 48°
2026-05-08 19:32 48.54238 7.63372 512 ft 13 kts 322°
2026-05-08 19:33 48.54296 7.63264 512 ft 14 kts 279°
2026-05-08 19:33 48.54326 7.63146 512 ft 12 kts 315°
2026-05-08 19:33 48.54385 7.63063 512 ft 12 kts 306°
2026-05-08 19:33 48.54371 7.62964 512 ft 9 kts 226°
2026-05-08 19:34 48.54324 7.62884 512 ft 10 kts 229°
2026-05-08 19:34 48.54285 7.62808 512 ft 9 kts 249°
2026-05-08 19:34 48.54278 7.62724 512 ft 7 kts 258°
2026-05-08 19:34 48.54303 7.62679 512 ft 5 kts 335°
2026-05-08 19:35 48.54313 7.62673 512 ft 0 kts 339°